Location: Antioch Baptist Church
(32.6696°N, 85.7327°W)
Time: 21:18:57
(UTC+00:00)

Alouette 2 Rocket - Pass Details

Date: 14 July 2020
Orbit: 502 x 2650 km, 79.8° (Epoch: 13 August)

Event Time Altitude Azimuth Distance (km) Brightness Sun altitude
Rises 02:07:26 0° 351° (N) 3,029 7.9 -14.2°
Reaches altitude 10° 02:09:20 10° 352° (N) 2,267 7.1 -14.6°
Maximum altitude 02:14:22 85° 80° (E) 988 4.5 -15.4°
Enters shadow 02:22:01 11° 170° (S) 3,398 6.9 -16.6°
